Location: Kuffner-Sternwarte
(48.2130°N, 16.2960°E)
Time: 12:14:10
(UTC+02:00)

COROT - Pass Details

Date: 22 May 2018
Orbit: 600 x 889 km, 90.0° (Epoch: 25 May)

Event Time Altitude Azimuth Distance (km) Brightness Sun altitude
Rises 21:01:33 0° 10° (N) 3,038 9.5 -4.3°
Reaches altitude 10° 21:03:58 10° 21° (NNE) 2,162 8.6 -4.6°
Maximum altitude 21:08:15 32° 84° (E) 1,250 6.8 -5.1°
Drops below altitude 10° 21:12:49 10° 147° (SSE) 2,316 7.9 -5.7°
Enters shadow 21:14:13 - 153° (SSE) 2,820 8.3 -5.9°
